When you browse on this site, cookies collect data to enhance your experience and personalize the content and advertising you see.
Visit our Privacy Policy to learn more. By continuing to use the site, you agree to this use of cookies and data.
EN

Hourly Weather Canidelo

Today, 9 August, Sunday

Time Temperature Precipitation Wind Pressure Humidity
00:00 +20°C° 0 mm 1 mps 760 mmHg 84%
01:00 +20°C° 0 mm 1 mps 759 mmHg 86%
02:00 +20°C° 0 mm 1 mps 759 mmHg 87%
03:00 +19°C° 0 mm 1 mps 759 mmHg 87%
04:00 +19°C° 0 mm 1 mps 759 mmHg 88%
05:00 +19°C° 0 mm 1 mps 759 mmHg 88%
06:00 +20°C° 0 mm 2 mps 759 mmHg 80%
07:00 +23°C° 0 mm 2 mps 759 mmHg 71%
08:00 +25°C° 0 mm 2 mps 759 mmHg 63%
09:00 +26°C° 0 mm 2 mps 759 mmHg 59%
10:00 +27°C° 0 mm 3 mps 759 mmHg 56%
11:00 +29°C° 0 mm 3 mps 759 mmHg 52%
12:00 +28°C° 0 mm 3 mps 758 mmHg 53%
13:00 +28°C° 0 mm 3 mps 758 mmHg 54%
14:00 +28°C° 0 mm 4 mps 758 mmHg 56%
15:00 +27°C° 0 mm 4 mps 758 mmHg 59%
16:00 +26°C° 0 mm 3 mps 758 mmHg 63%
17:00 +25°C° 0 mm 3 mps 758 mmHg 67%
18:00 +22°C° 0 mm 3 mps 758 mmHg 75%
19:00 +21°C° 0 mm 3 mps 758 mmHg 82%
20:00 +19°C° 0 mm 3 mps 758 mmHg 90%
21:00 +19°C° 0 mm 2 mps 758 mmHg 90%
22:00 +19°C° 0 mm 2 mps 758 mmHg 90%
23:00 +19°C° 0 mm 2 mps 758 mmHg 90%

Tomorrow, 10 August, Monday

Time Temperature Precipitation Wind Pressure Humidity
00:00 +21°C° 0 mm 1 mps 758 mmHg 89%
01:00 +21°C° 0 mm 1 mps 757 mmHg 88%
02:00 +21°C° 0 mm 1 mps 757 mmHg 87%
03:00 +21°C° 0 mm 1 mps 757 mmHg 87%
04:00 +21°C° 0 mm 1 mps 757 mmHg 86%
05:00 +19°C° 0 mm 0 mps 757 mmHg 86%
06:00 +22°C° 0 mm 1 mps 757 mmHg 81%
07:00 +23°C° 0 mm 1 mps 757 mmHg 77%
08:00 +24°C° 0 mm 1 mps 757 mmHg 72%
09:00 +25°C° 0 mm 1 mps 757 mmHg 66%
10:00 +27°C° 0 mm 2 mps 757 mmHg 60%
11:00 +28°C° 0 mm 2 mps 756 mmHg 54%
12:00 +28°C° 0 mm 3 mps 756 mmHg 54%
13:00 +28°C° 0 mm 4 mps 756 mmHg 55%
14:00 +28°C° 0 mm 4 mps 756 mmHg 55%
15:00 +27°C° 0 mm 4 mps 755 mmHg 59%
16:00 +26°C° 0 mm 4 mps 755 mmHg 63%
17:00 +25°C° 0 mm 4 mps 755 mmHg 67%
18:00 +24°C° 0 mm 3 mps 755 mmHg 73%
19:00 +21°C° 0 mm 3 mps 755 mmHg 79%
20:00 +20°C° 0 mm 2 mps 756 mmHg 86%
21:00 +20°C° 0 mm 2 mps 756 mmHg 87%
22:00 +19°C° 0 mm 2 mps 756 mmHg 88%
23:00 +19°C° 0 mm 2 mps 755 mmHg 89%

Day after tomorrow, 11 August, Tuesday

Time Temperature Precipitation Wind Pressure Humidity
00:00 +19°C° 0 mm 2 mps 755 mmHg 90%
01:00 +19°C° 0 mm 2 mps 755 mmHg 90%
02:00 +19°C° 0 mm 2 mps 755 mmHg 91%
03:00 +18°C° 0 mm 2 mps 755 mmHg 91%
04:00 +18°C° 0 mm 2 mps 755 mmHg 90%
05:00 +18°C° 0 mm 2 mps 755 mmHg 90%
06:00 +20°C° 0 mm 2 mps 755 mmHg 83%
07:00 +23°C° 0 mm 2 mps 755 mmHg 76%
08:00 +25°C° 0 mm 2 mps 756 mmHg 69%
09:00 +25°C° 0 mm 2 mps 756 mmHg 65%
10:00 +26°C° 0 mm 2 mps 756 mmHg 62%
11:00 +27°C° 0 mm 3 mps 756 mmHg 59%
12:00 +27°C° 0 mm 4 mps 756 mmHg 59%
13:00 +27°C° 0 mm 4 mps 756 mmHg 59%
14:00 +27°C° 0 mm 5 mps 755 mmHg 60%
15:00 +26°C° 0 mm 5 mps 756 mmHg 63%
16:00 +24°C° 0 mm 6 mps 756 mmHg 67%
17:00 +24°C° 0 mm 6 mps 756 mmHg 70%
18:00 +22°C° 0 mm 6 mps 757 mmHg 76%
19:00 +21°C° 0 mm 6 mps 757 mmHg 82%
20:00 +20°C° 0 mm 6 mps 758 mmHg 88%
21:00 +20°C° 0 mm 5 mps 758 mmHg 89%
22:00 +20°C° 0 mm 5 mps 758 mmHg 89%
23:00 +19°C° 0 mm 5 mps 758 mmHg 89%

12 August, Wednesday

Time Temperature Precipitation Wind Pressure Humidity
00:00 +19°C° 0 mm 5 mps 758 mmHg 89%
01:00 +19°C° 0 mm 5 mps 758 mmHg 90%
02:00 +19°C° 0 mm 5 mps 758 mmHg 90%
03:00 +19°C° 0 mm 5 mps 758 mmHg 90%
04:00 +19°C° 0 mm 5 mps 758 mmHg 90%
05:00 +19°C° 0 mm 5 mps 758 mmHg 90%
06:00 +20°C° 0 mm 5 mps 759 mmHg 83%
07:00 +21°C° 0 mm 5 mps 759 mmHg 77%
08:00 +22°C° 0 mm 4 mps 759 mmHg 71%
09:00 +25°C° 0 mm 5 mps 759 mmHg 65%
10:00 +26°C° 0 mm 6 mps 759 mmHg 59%
11:00 +27°C° 0 mm 7 mps 760 mmHg 53%
12:00 +27°C° 0 mm 7 mps 759 mmHg 53%
13:00 +27°C° 0 mm 7 mps 759 mmHg 52%
14:00 +27°C° 0 mm 7 mps 759 mmHg 52%
15:00 +26°C° 0 mm 7 mps 759 mmHg 54%
16:00 +24°C° 0 mm 7 mps 759 mmHg 56%
17:00 +23°C° 0 mm 7 mps 759 mmHg 58%
18:00 +22°C° 0 mm 7 mps 760 mmHg 64%
19:00 +20°C° 0 mm 6 mps 760 mmHg 70%
20:00 +19°C° 0 mm 5 mps 761 mmHg 75%
21:00 +19°C° 0 mm 5 mps 761 mmHg 77%
22:00 +18°C° 0 mm 4 mps 761 mmHg 79%
23:00 +18°C° 0 mm 4 mps 761 mmHg 80%

13 August, Thursday

Time Temperature Precipitation Wind Pressure Humidity
00:00 +17°C° 0 mm 4 mps 760 mmHg 81%
01:00 +17°C° 0 mm 3 mps 760 mmHg 82%
02:00 +17°C° 0 mm 3 mps 760 mmHg 83%
03:00 +17°C° 0 mm 3 mps 760 mmHg 84%
04:00 +17°C° 0 mm 3 mps 760 mmHg 84%
05:00 +15°C° 0 mm 4 mps 760 mmHg 84%
06:00 +19°C° 0 mm 3 mps 760 mmHg 74%
07:00 +21°C° 0 mm 3 mps 760 mmHg 63%
08:00 +25°C° 0 mm 3 mps 760 mmHg 52%
09:00 +26°C° 0 mm 4 mps 760 mmHg 46%
10:00 +27°C° 0 mm 5 mps 760 mmHg 41%
11:00 +29°C° 0 mm 6 mps 760 mmHg 35%
12:00 +28°C° 0 mm 7 mps 759 mmHg 39%
13:00 +28°C° 0 mm 7 mps 759 mmHg 42%
14:00 +27°C° 0 mm 8 mps 759 mmHg 46%
15:00 +26°C° 0 mm 8 mps 758 mmHg 50%
16:00 +24°C° 0 mm 7 mps 758 mmHg 54%
17:00 +23°C° 0 mm 7 mps 758 mmHg 57%
18:00 +22°C° 0 mm 6 mps 759 mmHg 64%
19:00 +20°C° 0 mm 6 mps 759 mmHg 71%
20:00 +17°C° 0 mm 6 mps 759 mmHg 77%
21:00 +17°C° 0 mm 5 mps 759 mmHg 80%
22:00 +16°C° 0 mm 5 mps 759 mmHg 82%
23:00 +17°C° 0 mm 4 mps 759 mmHg 85%

14 August, Friday

Time Temperature Precipitation Wind Pressure Humidity
00:00 +15°C° 0 mm 4 mps 759 mmHg 86%
01:00 +15°C° 0 mm 4 mps 759 mmHg 87%
02:00 +15°C° 0 mm 4 mps 758 mmHg 88%
03:00 +14°C° 0 mm 3 mps 758 mmHg 88%
04:00 +14°C° 0 mm 3 mps 759 mmHg 88%
05:00 +14°C° 0 mm 3 mps 759 mmHg 88%
06:00 +17°C° 0 mm 3 mps 759 mmHg 78%
07:00 +19°C° 0 mm 3 mps 759 mmHg 69%
08:00 +21°C° 0 mm 4 mps 759 mmHg 59%
09:00 +22°C° 0 mm 4 mps 759 mmHg 55%
10:00 +25°C° 0 mm 5 mps 759 mmHg 50%
11:00 +26°C° 0 mm 6 mps 759 mmHg 46%
12:00 +24°C° 0 mm 6 mps 758 mmHg 47%
13:00 +24°C° 0 mm 6 mps 758 mmHg 48%
14:00 +24°C° 0 mm 6 mps 758 mmHg 49%
15:00 +23°C° 0 mm 6 mps 758 mmHg 54%
16:00 +22°C° 0 mm 5 mps 758 mmHg 59%
17:00 +21°C° 0 mm 5 mps 759 mmHg 64%
18:00 +20°C° 0 mm 4 mps 759 mmHg 71%
19:00 +19°C° 0 mm 4 mps 759 mmHg 79%
20:00 +17°C° 0 mm 4 mps 760 mmHg 86%
21:00 +17°C° 0 mm 3 mps 760 mmHg 87%
22:00 +17°C° 0 mm 3 mps 760 mmHg 87%
23:00 +16°C° 0 mm 3 mps 760 mmHg 88%
Show more